GEFSMA_850_meantemp_174.txt.gz
Temperature
14 14 14 14 14 14 13 13 13 13 12 12 12 11 11 11 11 11 11 11 11 10 10 10 10 10 10 10 10 10 10 10 10 10 10 10 10 9 9 9 9 9 9
14 14 14 14 14 14 13 13 13 13 12 12 12 11 11 11 11 11 11 11 10 10 10 10 10 10 9 9 10 10 10 10 10 10 9 9 9 9 9 9 9 8 8
14 14 14 14 14 13 13 13 12 12 12 11 11 11 11 11 11 11 11 10 10 10 10 10 10 9 9 9 9 9 9 9 9 9 9 9 9 9 9 9 9 8 8
13 14 14 14 14 13 13 13 12 12 12 11 11 11 11 11 11 11 10 10 10 10 10 10 10 9 9 9 9 9 9 9 9 9 9 9 9 9 9 8 8 8 8
13 13 13 14 13 13 13 13 12 12 11 11 11 11 10 10 10 10 10 10 10 10 10 10 10 10 9 9 9 9 9 9 9 9 9 9 9 9 8 8 8 8 8
13 13 13 13 13 13 13 12 12 11 11 11 11 10 10 10 10 10 10 10 10 10 10 10 10 10 10 10 9 9 9 9 9 9 9 9 9 8 8 8 8 8 7
12 13 13 13 13 13 13 12 12 11 11 10 10 10 10 10 10 10 10 10 10 10 10 10 10 10 10 10 10 9 9 9 9 9 9 9 8 8 8 8 7 7 7
12 12 12 12 13 12 12 12 12 11 10 10 10 9 9 9 10 10 10 10 10 10 10 10 10 10 10 10 10 9 9 9 9 9 9 8 8 8 8 8 7 7 7
12 12 12 12 13 13 12 12 12 12 11 10 10 10 10 10 10 10 10 10 10 10 10 10 10 10 10 10 10 9 9 9 9 9 9 8 8 8 8 7 7 7 7
11 12 12 12 12 13 13 12 12 12 11 10 10 10 11 11 10 10 10 10 10 10 10 10 10 10 10 10 10 9 9 9 9 9 8 8 8 8 7 7 7 6 6
11 11 12 12 12 12 12 12 12 12 11 11 11 10 11 11 11 11 10 10 10 10 10 10 10 10 10 10 10 9 9 9 9 9 8 8 8 8 7 7 7 6 6
11 11 11 12 12 12 12 12 12 12 11 11 11 11 11 11 11 11 11 11 10 10 10 10 10 10 10 10 10 9 9 9 9 8 8 8 8 7 7 7 6 6 5
10 10 11 11 12 12 12 12 12 11 11 11 11 11 11 11 12 12 12 11 10 10 10 10 10 10 10 10 10 9 9 9 8 8 8 8 8 7 7 6 6 6 5
10 11 11 11 11 12 12 12 11 11 11 11 11 11 11 11 11 11 11 11 10 10 10 10 10 10 10 10 9 9 9 9 8 8 8 8 7 7 7 6 6 5 5
10 10 11 11 11 11 12 11 11 11 11 11 11 11 11 11 11 11 11 11 11 10 10 10 10 10 10 10 9 9 9 8 8 8 8 7 7 7 6 6 5 5 4
10 10 11 11 11 11 11 11 11 11 11 11 11 11 11 11 11 11 11 11 11 11 10 11 10 10 10 9 9 9 8 8 8 7 7 7 7 6 6 5 5 4 4
10 10 10 10 11 11 11 11 11 11 11 11 11 11 11 11 11 11 10 10 10 10 11 11 10 10 9 9 9 8 8 8 8 7 7 7 6 6 5 5 4 4 3
10 10 10 10 10 11 11 11 11 11 11 11 11 11 11 10 11 11 10 10 10 10 10 10 10 9 9 9 8 8 8 8 7 7 7 6 6 5 5 4 4 4 3
9 10 10 10 10 11 11 11 11 11 11 11 11 11 11 11 11 11 10 10 10 10 10 10 10 9 9 8 8 8 8 7 7 6 6 6 5 5 4 4 4 3 3
9 9 10 10 10 10 11 11 11 11 11 11 11 11 11 11 11 11 10 10 10 10 10 9 9 9 8 8 8 8 7 7 7 6 6 5 5 4 4 4 3 3 2
8 9 9 10 10 10 11 11 11 11 11 11 11 11 11 11 11 11 10 10 10 10 9 9 9 9 8 8 8 8 7 7 6 6 6 5 5 4 4 3 3 3 2
8 9 9 9 10 10 10 11 11 11 11 11 10 10 10 10 10 10 10 10 10 9 9 9 9 8 8 8 7 7 7 6 6 5 5 5 4 4 4 3 3 2 2
7 8 8 9 9 10 10 10 11 11 10 11 10 10 10 10 10 10 10 9 9 9 9 9 9 8 8 8 7 7 6 6 5 5 5 4 4 4 3 3 2 2 1
7 7 8 9 9 9 10 10 10 10 10 10 10 10 10 10 10 10 9 9 9 9 9 8 8 8 7 7 7 6 6 5 5 4 4 4 4 4 3 2 2 1 1
6 7 8 8 9 9 9 10 10 10 10 10 10 10 10 10 10 9 9 9 9 8 8 8 7 7 7 7 6 6 5 5 4 4 4 3 3 3 3 2 2 1 0
6 7 7 8 8 9 9 9 9 9 9 9 9 9 9 9 10 9 9 9 9 8 8 8 7 7 6 6 5 5 5 4 4 3 3 3 2 2 2 2 2 1 0

GEFSMA_850_meantemp_180.txt.gz
Temperature
14 14 14 14 14 14 14 14 14 13 13 13 13 12 12 12 12 12 12 11 11 11 10 10 10 10 10 9 9 9 9 9 9 9 9 9 9 9 9 9 9 9 8
13 13 13 13 13 13 13 14 13 13 13 13 12 12 12 12 12 12 11 11 11 11 10 10 10 10 9 9 9 9 9 9 9 9 9 9 9 9 9 8 8 8 8
12 13 13 13 13 13 13 13 13 13 12 12 12 12 12 12 12 11 11 11 11 10 10 10 10 10 9 9 9 9 9 9 9 9 9 9 9 9 8 8 8 8 8
12 12 12 12 13 13 13 12 12 12 12 12 12 12 12 11 11 11 11 11 11 10 10 10 10 10 9 9 9 9 9 9 9 9 9 9 8 8 8 8 8 8 8
11 11 12 12 12 12 12 12 12 12 12 12 11 11 11 11 11 11 11 11 11 10 10 10 10 10 9 9 9 9 9 9 9 8 8 8 8 8 8 8 8 8 8
11 11 11 11 12 12 12 12 12 11 11 11 11 11 11 11 11 11 11 10 10 10 10 10 10 10 10 9 9 9 9 9 9 8 8 8 8 8 8 8 8 8 8
10 10 10 10 11 11 11 11 11 11 10 10 10 10 10 10 10 10 10 10 10 10 10 10 10 10 10 9 9 9 9 9 9 8 8 8 8 8 8 8 8 8 7
9 9 10 10 10 11 11 11 11 10 10 10 10 9 9 9 10 10 10 10 10 10 10 10 10 10 10 9 9 9 9 9 9 8 8 8 8 8 8 8 8 7 7
9 9 9 9 10 10 10 11 10 10 10 10 10 10 9 9 10 10 10 10 10 10 10 10 10 10 10 9 9 9 9 9 9 8 8 8 8 8 8 8 7 7 7
9 9 9 9 9 10 10 10 10 10 10 9 9 10 11 11 10 10 10 10 10 10 10 10 10 10 10 9 9 9 9 9 9 8 8 8 8 8 8 7 7 7 7
8 9 9 9 9 9 10 10 10 10 10 10 10 10 10 11 11 11 10 10 10 10 10 10 10 10 10 9 9 9 9 9 9 8 8 8 8 7 7 7 7 7 6
8 8 8 9 9 9 9 10 10 10 10 10 10 10 10 10 11 11 11 10 10 10 10 10 10 10 10 10 9 9 9 9 8 8 8 8 8 7 7 7 6 6 6
7 8 8 8 9 9 9 9 10 10 10 10 10 10 10 10 11 11 12 11 10 10 10 10 10 10 10 10 9 9 9 9 8 8 8 8 8 7 7 7 6 6 5
7 8 8 8 8 9 9 9 9 10 10 10 10 10 10 10 11 11 11 11 10 9 10 10 10 10 10 10 9 9 9 9 8 8 8 8 7 7 7 7 6 6 5
7 7 8 8 8 8 9 9 9 9 9 9 10 10 10 10 10 10 11 11 11 9 9 10 10 10 10 10 9 9 9 8 8 8 8 7 7 7 7 6 6 5 5
7 7 7 8 8 8 8 9 9 9 9 9 9 9 10 10 10 10 10 10 11 11 10 10 10 10 10 9 9 9 8 8 8 8 7 7 7 7 6 6 5 5 5
6 7 7 7 8 8 8 8 8 9 9 9 9 9 10 10 10 10 10 10 10 10 11 10 10 10 10 9 9 9 8 8 8 8 7 7 7 6 6 6 5 5 5
6 6 7 7 7 8 8 8 8 8 8 9 9 9 9 9 9 10 10 10 10 10 10 10 10 9 9 9 9 8 8 8 8 7 7 7 6 6 6 5 5 5 4
6 6 6 6 7 7 8 8 8 8 8 9 9 9 9 9 9 9 10 10 10 10 10 10 10 9 9 9 8 8 8 7 7 7 7 6 6 6 5 5 5 4 4
6 6 6 6 7 7 7 8 8 8 8 9 9 9 9 10 10 10 10 10 10 10 10 10 9 9 9 9 8 8 8 7 7 7 6 6 6 5 5 5 4 4 3
5 6 6 6 6 7 7 8 8 8 8 9 9 9 9 10 10 10 10 10 10 10 9 9 9 9 9 9 8 8 8 7 7 7 6 6 5 5 5 4 4 3 3
5 6 6 6 6 6 7 8 8 8 8 9 9 9 9 9 9 9 9 10 10 10 10 9 9 9 9 9 8 8 7 7 6 6 6 6 5 5 4 4 3 3 3
5 5 5 6 6 6 7 8 8 8 8 9 9 9 9 9 9 9 9 9 10 10 10 10 10 10 9 9 8 8 7 7 6 6 6 5 5 5 4 4 3 2 2
4 5 5 5 6 7 7 7 8 8 8 9 9 9 9 9 9 9 9 9 9 9 9 9 9 9 9 8 8 7 7 6 6 5 5 5 5 4 4 3 3 2 2
4 4 5 5 5 6 7 7 8 8 8 9 9 9 9 9 9 9 9 9 9 9 9 9 9 8 8 8 7 7 6 6 6 5 5 4 4 4 4 3 2 2 1
4 4 4 5 5 6 7 7 8 8 8 8 8 9 9 9 9 9 9 9 9 9 9 8 8 8 7 7 7 6 6 6 5 5 4 4 3 3 3 3 2 2 1

GEFSMA_850_meantemp_186.txt.gz
Temperature
13 13 13 13 13 13 13 13 13 13 13 13 13 13 13 13 12 12 12 12 12 12 12 12 11 11 10 10 10 10 10 10 10 10 10 9 9 9 9 9 9 9 8
12 12 12 13 13 13 13 13 13 13 13 13 13 12 12 12 12 12 12 12 12 12 12 11 11 11 10 10 10 10 10 10 10 10 9 9 9 9 9 9 9 8 8
11 11 12 12 12 12 12 12 12 12 12 12 12 12 12 12 12 12 12 12 12 12 12 11 11 11 10 10 10 10 10 10 10 9 9 9 9 9 9 9 9 8 8
10 10 10 11 11 11 11 11 12 12 12 12 11 12 12 12 11 11 11 11 11 11 11 11 11 11 10 10 10 10 10 10 10 9 9 9 9 9 9 9 8 8 8
9 9 10 10 10 10 10 10 11 11 11 11 11 11 11 11 11 11 11 11 11 11 11 11 11 11 10 10 10 10 10 10 10 9 9 9 9 9 9 8 8 8 8
9 9 9 9 9 10 10 10 10 10 10 10 10 10 11 11 11 11 10 10 11 11 11 11 10 10 10 10 10 10 10 10 10 9 9 9 9 9 9 8 8 8 8
8 8 8 9 9 9 9 9 9 9 10 10 9 9 10 10 10 10 10 10 10 10 10 10 10 10 10 10 10 10 10 10 9 9 9 9 9 9 8 8 8 8 8
8 8 8 8 8 8 8 9 9 9 9 9 9 9 9 9 10 10 10 10 10 10 10 10 10 10 10 10 10 10 10 10 9 9 9 9 9 9 8 8 8 8 8
7 8 8 8 8 8 8 8 9 8 8 8 9 9 9 10 10 9 10 10 10 10 10 10 10 10 10 10 10 10 10 10 9 9 9 9 9 8 8 8 8 8 7
7 7 7 7 8 8 8 8 8 8 8 8 8 9 9 10 10 9 9 9 10 10 10 10 10 10 10 10 10 10 10 9 9 9 9 9 8 8 8 8 8 8 7
6 7 7 7 7 7 8 8 8 8 8 8 8 8 9 9 10 10 9 9 9 9 9 9 10 10 10 10 10 10 10 9 9 9 9 9 8 8 8 8 8 7 7
6 6 6 7 7 7 7 7 7 8 8 8 8 8 8 9 9 10 10 9 9 9 9 10 10 10 10 10 10 10 9 9 9 9 9 8 8 8 8 8 7 7 7
5 6 6 6 7 7 7 7 7 7 7 8 8 8 8 8 9 10 10 9 9 9 9 10 10 10 10 10 10 10 9 9 9 9 8 8 8 8 8 8 7 7 7
5 6 6 6 6 7 7 7 7 7 7 7 7 8 8 8 9 9 10 10 9 9 9 9 10 10 10 10 9 9 9 9 9 9 8 8 8 8 8 7 7 7 6
5 5 5 6 6 6 7 7 6 7 7 7 7 7 7 8 8 9 9 10 9 9 9 9 10 10 10 9 9 9 9 9 9 8 8 8 8 8 7 7 7 6 6
4 5 5 5 6 6 6 6 6 6 6 7 7 7 7 7 8 8 9 9 9 9 9 9 10 10 10 9 9 9 9 9 9 8 8 8 8 7 7 7 6 6 6
4 4 5 5 5 6 6 6 6 6 6 6 7 7 7 7 7 8 8 8 9 9 9 9 9 9 9 9 9 9 8 8 8 8 8 7 7 7 7 6 6 6 5
4 4 4 4 5 5 5 6 6 6 6 6 6 7 7 7 7 7 8 8 8 9 9 9 9 9 9 9 9 8 8 8 8 8 7 7 7 7 6 6 6 5 5
3 4 4 4 4 5 5 6 6 6 6 6 6 6 7 7 7 7 8 8 8 8 9 9 9 9 9 8 8 8 8 8 8 7 7 7 7 6 6 6 5 5 4
3 3 3 4 4 5 5 5 5 6 6 6 6 6 7 7 7 7 8 8 8 8 9 9 9 9 8 8 8 8 8 7 7 7 7 6 6 6 6 5 5 5 4
3 3 3 4 4 4 5 5 5 5 6 6 6 6 7 7 7 7 7 8 8 8 8 8 8 8 8 8 8 8 7 7 7 7 6 6 6 6 5 5 4 4 4
3 3 3 4 4 4 5 5 5 5 5 6 6 6 7 7 7 7 8 8 8 8 8 8 8 8 8 8 8 7 7 7 6 6 6 6 5 5 5 4 4 4 3
2 3 3 3 4 4 5 5 5 5 5 6 6 6 6 6 7 7 7 8 8 8 8 9 9 8 8 8 8 7 7 7 6 6 6 5 5 5 4 4 4 3 3
2 3 3 3 3 4 4 5 5 5 5 6 6 6 6 6 7 7 7 7 8 8 8 8 8 8 8 8 8 8 7 7 6 6 5 5 5 4 4 4 3 3 2
2 2 3 3 3 4 4 4 4 5 5 5 6 6 6 6 7 7 7 7 8 8 7 8 8 8 8 7 7 7 6 6 6 5 5 5 4 4 4 3 3 2 2
2 2 2 2 3 3 3 4 4 4 5 5 6 6 6 7 7 7 7 7 7 7 7 7 7 7 7 7 7 7 7 6 6 5 5 4 4 3 3 3 2 2 2

GEFSMA_850_meantemp_192.txt.gz
Temperature
11 11 11 12 12 12 13 13 13 13 13 13 13 13 13 13 13 13 13 13 13 13 13 13 13 12 12 12 11 11 11 11 11 11 11 11 10 10 10 10 10 9 9
10 10 10 11 11 12 12 12 12 12 12 12 12 12 13 13 13 13 13 13 13 13 13 13 13 12 12 12 11 11 11 11 11 11 11 10 10 10 10 10 9 9 9
9 9 10 10 10 11 11 11 11 12 12 12 12 12 12 12 12 12 12 13 13 13 13 13 12 12 12 12 11 11 11 11 11 11 11 10 10 10 10 10 9 9 9
8 8 9 9 10 10 10 10 11 11 11 11 11 11 11 12 12 12 12 12 12 12 12 12 12 12 12 12 11 11 11 11 11 11 11 10 10 10 10 9 9 9 8
8 8 8 9 9 9 9 9 10 10 10 10 10 11 11 11 11 11 11 12 12 12 12 12 12 12 12 12 11 11 11 11 11 11 11 10 10 10 10 9 9 9 8
7 7 7 8 8 8 9 9 9 9 9 10 10 10 10 10 11 11 11 11 11 11 12 12 12 12 12 12 11 11 11 11 11 11 11 10 10 10 9 9 9 9 8
7 7 7 7 7 8 8 8 8 8 9 9 9 9 10 10 10 10 10 11 11 11 11 11 11 11 11 11 11 11 11 11 11 11 10 10 10 10 9 9 9 8 8
6 6 6 7 7 7 7 8 8 8 8 8 8 8 8 9 9 10 10 10 10 10 10 11 11 11 11 11 11 11 11 11 11 10 10 10 10 10 9 9 9 8 8
6 6 6 6 6 7 7 7 7 7 7 8 8 8 8 8 8 9 9 9 10 10 10 10 10 11 11 11 11 11 11 11 10 10 10 10 10 9 9 9 9 8 8
5 5 5 6 6 6 6 7 7 7 7 7 7 8 8 8 8 8 9 9 9 9 10 10 10 10 10 11 11 11 11 11 10 10 10 10 9 9 9 9 9 8 8
5 5 5 5 6 6 6 6 6 6 7 7 7 7 8 8 8 8 8 8 9 9 9 10 10 10 10 10 11 11 11 11 10 10 10 10 9 9 9 9 8 8 8
4 5 5 5 5 5 6 6 6 6 6 6 6 7 7 7 8 8 8 8 8 9 9 9 9 10 10 10 10 11 11 11 10 10 10 10 9 9 9 8 8 8 8
4 4 4 5 5 5 5 6 6 6 6 6 6 6 7 7 8 8 8 8 8 8 8 9 9 9 10 10 10 10 10 10 10 10 10 9 9 9 9 8 8 8 8
3 4 4 4 4 5 5 5 5 5 5 6 6 6 6 7 7 7 8 8 7 7 8 8 9 9 9 10 10 10 10 10 10 10 9 9 9 9 8 8 8 8 8
3 3 4 4 4 4 5 5 5 5 5 5 6 6 6 6 6 7 7 7 8 7 7 8 8 9 9 9 10 10 10 10 10 9 9 9 8 8 8 8 8 7 7
3 3 3 3 4 4 4 4 5 5 5 5 5 5 5 6 6 6 6 7 7 8 8 8 8 9 9 9 9 9 9 10 9 9 9 8 8 8 8 8 7 7 7
2 3 3 3 3 3 4 4 4 4 4 4 5 5 5 5 6 6 6 6 7 7 8 8 8 8 8 9 9 9 9 9 9 9 8 8 8 7 7 7 7 7 6
2 2 2 3 3 3 3 3 4 4 4 4 5 5 5 5 5 5 6 6 6 7 8 8 7 8 8 8 9 9 9 8 8 8 8 8 7 7 7 7 6 6 6
2 2 2 2 3 3 3 3 3 3 4 4 4 4 5 5 5 5 6 6 6 7 7 7 7 7 7 8 8 8 8 8 8 8 7 7 7 7 7 6 6 6 5
1 2 2 2 2 2 3 3 3 3 3 4 4 4 5 5 5 5 5 6 6 6 6 7 7 7 7 7 7 7 7 7 7 7 7 7 6 6 6 6 5 5 5
1 1 1 2 2 2 2 2 3 3 3 3 4 4 5 5 5 5 5 5 6 6 6 6 6 6 7 7 7 7 7 7 7 7 6 6 6 6 5 5 5 5 4
1 1 1 1 1 2 2 2 3 3 3 3 3 4 4 5 5 5 5 5 6 6 6 6 7 7 7 7 7 7 7 6 6 6 6 6 5 5 5 5 4 4 4
0 1 1 1 1 1 2 2 2 3 3 3 4 4 4 5 5 5 5 5 5 6 6 7 7 7 7 7 7 7 7 7 6 6 6 5 5 5 5 4 4 3 3
-0 0 0 1 1 1 2 2 2 2 3 3 4 4 4 5 5 5 5 5 5 5 6 6 7 7 7 7 7 7 7 6 6 5 5 5 4 4 4 4 3 3 3
-0 -0 0 0 1 1 1 2 2 2 3 3 4 4 4 4 4 5 5 5 5 5 5 6 6 6 6 7 6 6 6 6 5 5 5 5 4 4 3 3 3 3 2
-0 -0 0 0 1 1 1 1 2 2 2 3 3 4 4 4 4 4 5 5 5 5 5 5 6 6 6 6 6 6 6 6 5 5 4 4 4 4 3 2 2 2 2

GEFSMA_850_meantemp_198.txt.gz
Temperature
11 11 11 11 11 11 11 12 12 12 12 12 12 13 13 13 13 13 13 13 13 13 13 13 13 13 12 12 12 12 12 12 12 12 12 11 11 11 10 10 10 10 10
10 10 10 10 10 10 11 11 11 11 11 12 12 12 12 12 12 12 13 13 13 13 13 13 13 12 12 12 12 12 12 12 12 12 11 11 11 11 10 10 10 10 10
9 9 9 9 9 9 10 10 10 10 10 11 11 11 11 12 12 12 12 12 12 12 12 12 12 12 12 12 12 12 12 12 12 11 11 11 11 11 10 10 10 10 10
8 8 8 9 9 9 9 9 9 9 10 10 10 11 11 11 11 11 11 12 12 12 12 12 12 12 12 12 12 12 12 12 12 11 11 11 11 11 10 10 10 10 10
8 7 7 8 8 8 8 8 8 8 9 9 9 10 10 10 11 11 11 11 11 11 11 11 12 12 12 12 12 11 11 11 11 11 11 11 11 11 10 10 10 10 10
7 7 7 7 7 7 7 7 8 8 8 8 8 9 10 10 10 10 11 11 11 11 11 11 11 11 11 11 11 11 11 11 11 11 11 11 11 10 10 10 10 10 9
7 6 6 6 6 6 7 7 7 7 7 7 7 8 9 9 10 10 10 10 10 10 10 10 10 11 11 11 11 11 11 11 11 11 11 11 11 10 10 10 10 10 9
6 6 6 6 6 6 6 6 6 6 6 6 6 6 7 8 8 9 9 10 10 10 10 10 10 10 10 10 10 11 11 11 11 10 10 11 10 10 10 10 10 10 9
6 5 5 5 5 5 5 5 5 5 6 6 6 5 6 6 7 8 8 9 9 9 9 9 9 10 9 10 10 10 10 10 10 10 10 10 10 10 10 10 10 9 9
5 5 5 5 5 5 5 5 5 5 5 5 5 6 6 6 6 6 7 8 8 8 9 9 9 9 9 9 9 10 10 10 10 10 10 10 10 10 9 9 9 9 9
5 5 5 4 4 4 4 4 4 4 5 5 5 5 6 6 6 5 6 7 7 8 8 8 9 9 9 9 9 9 10 10 10 10 10 10 10 9 9 9 9 9 9
4 4 4 4 4 4 4 4 4 4 4 5 5 5 5 5 6 6 5 6 6 7 8 8 8 8 8 9 9 9 9 9 9 10 9 9 9 9 9 9 9 9 8
4 4 3 3 3 3 4 4 4 4 4 4 4 5 5 5 5 5 5 5 5 6 7 7 8 8 8 8 9 9 9 9 9 9 9 9 9 9 9 9 8 8 8
3 3 3 3 3 3 3 3 3 4 4 4 4 4 4 5 5 5 5 5 5 5 6 6 7 8 8 8 8 8 8 9 9 9 9 9 9 9 8 8 8 8 8
3 3 3 3 3 3 3 3 3 3 4 4 4 4 4 4 5 5 5 5 5 4 5 6 6 7 7 8 8 8 8 8 9 8 8 8 8 8 8 8 8 8 8
2 2 2 2 2 2 2 3 3 3 3 3 3 3 4 4 4 4 4 5 5 5 5 5 6 7 7 7 7 7 8 8 8 8 8 8 8 8 8 8 7 7 7
2 2 2 2 2 2 2 2 2 2 3 3 3 3 3 4 3 4 4 4 4 5 5 5 5 6 6 7 7 7 7 7 8 8 7 8 8 8 7 7 7 7 7
2 2 2 2 2 2 2 2 2 2 2 3 3 3 3 3 3 3 3 4 4 4 5 5 5 5 6 6 6 6 6 7 7 7 7 7 7 7 7 7 7 6 6
2 2 1 1 1 1 1 2 2 2 2 2 2 2 3 3 3 3 3 3 4 4 4 4 5 5 5 5 5 5 6 6 6 6 7 7 7 7 7 6 6 6 6
1 1 1 1 1 1 1 1 1 1 2 2 2 2 2 3 3 3 3 4 4 4 4 4 4 5 5 5 5 5 5 5 6 6 6 6 6 6 6 6 6 5 5
1 1 1 1 1 1 1 1 1 1 1 1 2 2 2 3 3 3 3 3 4 3 4 4 4 4 4 4 5 5 5 5 5 5 5 5 5 5 5 5 5 5 4
1 1 0 0 0 0 0 0 0 1 1 1 2 2 2 2 3 3 3 3 4 4 4 4 4 4 4 5 5 5 4 4 4 4 5 5 5 5 5 5 4 4 4
0 0 -0 -0 -0 0 0 0 0 0 0 1 1 2 2 2 2 3 3 3 3 3 4 4 4 4 5 5 5 4 4 5 5 5 4 4 4 4 4 4 4 4 3
-0 -0 -0 -1 -1 -0 -0 -0 -0 0 0 1 1 2 2 2 2 2 3 3 3 3 4 4 4 5 5 5 5 5 4 4 4 4 4 4 3 3 3 3 3 3 3
-1 -1 -1 -1 -1 -0 -0 -0 -0 -0 0 1 1 1 2 2 2 2 3 3 3 3 3 4 4 4 4 4 4 4 4 4 4 3 4 4 3 3 3 2 2 2 2
-1 -1 -1 -1 -1 -1 -0 -0 -0 -0 -0 0 1 1 1 1 2 2 3 3 3 3 3 3 3 3 3 3 3 4 4 4 4 3 3 3 3 3 2 2 2 2 2

GEFSMA_850_meantemp_204.txt.gz
Temperature
10 10 10 11 11 11 11 11 11 11 11 11 11 12 12 12 12 12 12 12 12 12 12 12 12 12 12 12 12 12 12 12 12 12 12 12 12 12 11 11 11 11 10
10 10 10 10 10 10 10 10 10 10 11 11 11 11 11 11 12 12 12 12 12 12 12 12 12 12 12 12 12 12 12 12 12 12 12 12 12 12 11 11 11 11 10
9 9 9 9 9 9 9 9 10 10 10 10 10 10 10 11 11 11 11 12 12 12 12 12 12 12 12 12 12 12 12 12 12 12 12 12 12 11 11 11 11 11 10
8 8 8 8 8 8 8 9 9 9 9 9 9 10 10 10 10 10 11 11 11 11 11 11 11 11 11 11 11 11 11 11 12 12 12 11 11 11 11 11 11 10 10
8 8 8 8 7 8 8 8 8 8 8 8 8 9 9 9 10 10 10 10 10 11 11 11 11 11 11 11 11 11 11 11 11 11 11 11 11 11 11 11 10 10 10
7 7 7 7 7 7 7 7 7 7 7 7 7 8 8 9 9 9 10 10 10 10 10 10 10 10 11 11 11 11 11 11 11 11 11 11 11 11 10 10 10 10 10
7 7 7 7 6 6 6 6 6 6 6 6 6 7 8 8 8 9 9 9 9 10 10 10 10 10 10 10 10 10 10 10 10 10 10 10 10 10 10 10 10 10 10
7 6 6 6 6 6 6 6 6 6 6 5 5 5 5 6 7 8 8 8 9 9 9 9 9 9 9 10 10 10 10 10 10 10 10 10 10 10 10 10 10 10 10
6 6 6 5 5 5 5 5 5 5 5 5 4 4 4 4 5 6 7 8 8 8 8 9 9 9 9 9 9 9 9 9 9 9 10 10 10 10 10 10 10 10 9
6 6 5 5 5 5 5 5 4 4 4 4 4 4 4 4 3 4 6 6 7 7 8 8 8 8 8 8 9 9 9 9 9 9 9 9 9 9 9 9 10 9 9
5 5 5 5 4 4 4 4 4 4 4 3 3 3 3 3 3 3 4 5 6 6 7 7 7 8 8 8 8 8 9 9 8 8 8 9 9 9 9 9 9 9 9
5 5 4 4 4 4 4 4 4 4 3 3 3 3 3 3 3 3 3 4 4 5 6 7 7 7 7 8 8 8 8 8 8 8 8 8 8 9 9 9 9 9 9
4 4 4 4 4 4 3 3 3 3 3 3 3 3 3 2 3 3 3 3 3 4 5 6 6 7 7 7 7 7 8 8 8 7 8 8 8 8 8 8 8 8 8
4 4 4 4 3 3 3 3 3 3 3 3 2 2 2 2 2 3 3 3 3 3 4 5 6 6 6 6 7 7 7 7 7 7 7 7 7 8 8 8 8 8 8
3 3 3 3 3 3 3 3 3 3 2 2 2 2 2 2 2 2 2 3 2 2 3 4 5 6 6 6 6 6 6 7 7 7 7 7 7 7 7 8 8 8 8
3 3 3 3 3 3 2 2 2 2 2 2 2 2 2 2 2 2 2 2 2 2 2 3 4 5 5 5 5 6 6 6 6 6 6 7 7 7 7 7 7 7 7
3 3 3 2 2 2 2 2 2 2 2 2 1 1 2 2 2 2 2 2 2 2 2 3 3 4 4 5 5 5 5 5 6 6 6 6 6 6 6 7 7 7 7
2 2 2 2 2 2 2 1 1 1 1 1 1 1 1 1 1 2 2 2 2 2 2 2 3 3 4 4 4 4 5 5 5 5 6 6 6 6 6 6 6 6 6
2 2 2 2 2 1 1 1 1 1 1 1 1 1 1 1 1 1 1 1 1 2 2 2 2 2 3 3 4 4 4 4 5 5 5 5 5 5 5 6 6 6 6
2 2 2 1 1 1 1 1 0 0 0 0 0 0 1 1 1 1 1 1 1 1 2 2 2 2 2 3 3 3 3 4 4 4 4 4 5 5 5 5 5 5 5
2 1 1 1 1 1 0 -0 -0 -0 -0 -0 -0 0 0 1 1 1 1 1 1 1 1 2 2 2 2 2 3 3 3 3 3 4 4 4 4 4 4 4 5 5 5
1 1 1 1 1 0 0 -0 -1 -1 -1 -1 -0 -0 0 0 1 1 1 1 1 1 2 2 2 2 2 3 3 3 3 3 3 3 3 3 3 3 4 4 4 4 4
1 1 1 0 0 0 -0 -1 -1 -1 -1 -1 -1 -0 -0 -0 0 0 1 1 1 1 2 2 2 2 2 3 3 3 3 3 3 3 3 3 3 3 3 3 3 4 4
0 0 0 0 -0 -0 -1 -1 -1 -1 -1 -1 -1 -1 -1 -0 -0 -0 0 1 1 1 1 2 2 2 2 2 3 3 3 3 2 2 2 2 2 2 2 3 3 3 3
-0 -0 -0 -0 -1 -1 -1 -1 -1 -2 -1 -1 -1 -1 -1 -1 -0 -0 0 0 1 1 1 2 2 2 2 2 2 2 2 2 2 2 2 2 1 1 2 2 2 2 3
-1 -1 -1 -1 -1 -1 -1 -1 -2 -2 -2 -1 -1 -1 -1 -1 -0 -0 -0 0 0 1 1 1 1 2 2 2 2 2 2 2 2 1 2 2 1 1 1 1 1 2 2

GEFSMA_850_meantemp_210.txt.gz
Temperature
11 11 11 11 11 11 11 11 11 11 11 11 11 11 11 11 11 11 11 12 12 12 12 12 12 12 12 12 12 12 12 12 12 12 12 12 12 12 12 12 12 11 11
10 10 10 10 10 10 10 10 10 10 10 10 10 10 10 10 10 10 10 11 11 12 12 12 12 12 12 12 12 12 12 12 12 12 12 12 12 12 12 12 11 11 11
10 10 10 10 10 10 10 10 10 10 10 10 10 10 10 10 10 10 10 10 10 10 11 11 11 11 11 11 11 11 11 11 11 11 11 11 12 12 12 11 11 11 11
9 9 9 9 9 9 9 9 9 9 9 9 9 9 9 9 9 9 9 9 9 10 10 10 11 11 11 11 11 11 11 11 11 11 11 11 11 11 11 11 11 11 11
9 9 8 8 8 8 8 8 8 8 8 8 8 8 8 9 9 9 9 9 9 9 9 9 10 10 10 10 10 10 11 11 11 11 11 11 11 11 11 11 11 11 11
8 8 8 8 8 8 8 8 7 7 7 7 7 7 8 8 8 8 8 8 8 8 8 9 9 9 10 10 10 10 10 10 10 10 10 10 10 10 10 10 11 10 10
8 8 8 7 7 7 7 7 7 7 7 7 6 6 7 7 7 7 7 8 8 8 8 8 8 8 9 9 9 9 9 10 10 10 10 10 10 10 10 10 10 10 10
8 7 7 7 7 7 6 6 6 6 6 5 5 5 5 6 7 7 7 7 7 7 7 7 7 8 8 8 8 9 9 9 9 9 9 9 9 9 10 10 10 10 10
7 7 7 7 6 6 6 5 5 5 5 5 4 4 4 5 5 5 6 6 6 6 7 7 7 7 7 7 7 8 8 9 9 9 9 9 9 9 9 9 9 9 9
7 7 7 6 6 5 5 5 5 4 4 4 4 4 4 4 3 4 5 5 5 6 6 6 6 6 6 7 7 7 8 8 8 8 8 8 9 9 9 9 9 9 9
6 6 6 6 5 5 5 4 4 4 4 3 3 3 3 3 3 3 4 4 5 5 5 5 5 6 6 6 6 7 7 8 8 8 8 8 8 8 8 8 8 8 9
6 6 5 5 5 5 4 4 4 4 4 3 3 3 3 2 3 3 3 3 4 4 4 5 5 5 5 5 6 6 7 7 7 7 7 8 8 8 8 8 8 8 8
5 5 5 5 4 4 4 4 4 3 3 3 3 3 2 2 2 2 2 2 3 3 4 4 4 4 5 5 5 6 6 6 7 7 7 7 7 7 7 8 8 8 8
5 5 4 4 4 4 4 3 3 3 3 3 2 2 2 2 2 2 2 2 2 2 3 3 4 4 4 4 5 5 5 6 6 6 6 7 7 7 7 7 7 7 7
5 4 4 4 4 4 3 3 3 3 2 2 2 2 2 2 2 2 1 1 1 1 2 3 3 3 4 4 4 4 4 5 5 6 6 6 6 6 6 7 7 7 7
4 4 4 4 3 3 3 3 2 2 2 2 2 1 1 1 1 1 1 1 1 1 1 2 2 3 3 3 3 4 4 4 5 5 5 5 6 6 6 6 6 6 7
4 4 4 3 3 3 3 2 2 2 2 1 1 1 1 1 1 1 1 1 1 1 1 1 2 2 2 3 3 3 3 4 4 4 5 5 5 5 6 6 6 6 6
4 3 3 3 3 3 2 2 2 1 1 1 1 1 1 1 1 1 1 1 1 1 1 1 1 2 2 2 3 3 3 3 4 4 4 5 5 5 5 5 5 5 5
3 3 3 3 2 2 2 2 1 1 1 1 1 1 1 0 0 0 0 0 0 0 0 0 1 1 1 2 2 2 3 3 3 3 4 4 4 5 5 5 5 5 5
3 3 3 2 2 2 2 1 1 1 0 0 0 0 0 0 0 0 0 -0 -0 0 0 0 0 1 1 1 2 2 2 2 3 3 3 3 4 4 4 4 4 4 4
3 2 2 2 2 1 1 1 0 -0 -0 -0 -0 -0 -0 -0 -0 -0 -0 -0 -0 -0 -0 -0 0 1 1 1 1 1 2 2 2 2 3 3 3 3 3 4 4 4 4
2 2 2 1 1 1 1 0 -0 -0 -1 -1 -0 -0 -0 -0 -0 -0 -0 -0 -0 -0 -0 -0 -0 0 1 1 1 1 1 1 1 2 2 2 2 2 3 3 3 3 3
1 1 1 1 1 1 0 -0 -0 -1 -1 -1 -1 -1 -1 -1 -1 -1 -1 -1 -1 -1 -1 -0 -0 -0 0 0 1 1 1 1 1 1 2 1 2 2 2 2 3 3 3
1 1 1 0 0 0 0 -0 -1 -1 -1 -1 -1 -1 -1 -1 -1 -1 -1 -1 -1 -1 -1 -1 -1 -0 -0 0 0 1 1 1 1 1 1 1 1 1 1 2 2 2 2
1 0 0 0 -0 -0 -0 -1 -1 -2 -2 -2 -1 -1 -1 -1 -1 -1 -1 -1 -1 -1 -1 -1 -1 -0 -0 0 1 1 1 1 0 0 1 1 1 1 1 1 1 2 2
0 -0 -0 -0 -1 -1 -1 -1 -2 -2 -2 -2 -2 -2 -2 -2 -1 -1 -1 -1 -1 -1 -1 -1 -1 -0 0 0 1 1 1 1 0 0 0 0 0 0 -0 0 1 1 1

GEFSMA_850_meantemp_216.txt.gz
Temperature
12 12 12 12 12 11 11 11 11 11 11 11 11 11 11 11 11 11 11 11 12 11 11 11 11 11 11 12 12 12 12 12 12 12 12 12 12 12 12 12 12 12 12
11 11 11 11 11 11 11 11 11 11 11 11 11 11 11 11 11 11 11 11 11 11 11 11 11 11 11 11 11 11 11 11 11 11 12 12 12 12 12 12 12 12 12
11 11 11 10 10 10 10 10 10 10 10 10 10 10 10 10 10 10 10 10 10 10 10 10 10 10 10 10 10 10 11 11 11 11 11 11 11 11 12 12 12 12 12
10 10 10 10 10 10 10 10 10 10 10 10 10 10 10 10 10 10 10 10 10 10 10 9 9 9 9 9 9 9 10 10 10 10 10 11 11 11 11 11 11 11 11
10 10 10 10 9 9 9 9 9 9 9 9 9 9 9 10 10 9 9 9 9 9 9 9 9 9 9 9 9 9 9 9 9 10 10 10 10 10 11 11 11 11 11
9 9 9 9 9 9 9 9 9 9 8 8 8 9 9 9 9 9 8 8 8 8 8 8 8 8 8 8 8 8 8 8 9 9 9 9 9 10 10 10 10 10 10
9 9 9 9 9 8 8 8 8 8 8 8 8 8 8 8 8 8 8 8 8 8 8 8 8 8 8 8 8 8 8 8 8 8 8 9 9 9 9 10 10 10 10
9 9 8 8 8 8 8 7 7 7 7 7 6 6 6 7 7 7 7 7 7 7 7 7 7 7 7 7 7 7 7 7 7 8 8 8 8 8 8 9 9 9 9
8 8 8 8 7 7 7 7 7 6 6 6 5 5 5 5 5 6 6 6 6 6 6 6 6 6 6 7 7 7 7 7 7 7 7 7 7 8 8 8 8 8 9
8 8 7 7 7 7 7 7 6 6 6 5 5 5 4 4 4 4 5 5 5 6 6 6 6 6 6 6 6 6 6 6 6 6 6 6 7 7 7 7 8 8 8
7 7 7 7 7 7 6 6 6 6 5 5 4 4 4 4 3 3 3 4 5 5 5 5 5 5 5 5 5 5 5 5 6 6 6 6 6 6 7 7 7 7 7
7 7 7 6 6 6 6 6 5 5 5 4 4 4 3 3 3 3 3 3 3 4 4 4 4 4 4 5 5 5 5 5 5 5 5 5 5 6 6 6 6 7 7
6 6 6 6 6 6 6 5 5 5 4 4 4 4 3 3 3 3 2 2 2 3 3 4 4 4 4 4 4 4 4 4 4 4 4 5 5 5 5 5 6 6 6
6 6 6 6 6 5 5 5 5 4 4 4 3 3 3 3 3 2 2 2 2 2 2 3 3 3 3 3 3 3 3 3 4 4 4 4 4 4 5 5 5 5 6
6 6 6 5 5 5 5 5 4 4 4 3 3 3 3 3 2 2 2 2 1 1 2 2 2 3 3 3 3 3 3 3 3 3 3 4 4 4 4 4 5 5 5
5 5 5 5 5 5 5 4 4 4 3 3 3 3 2 2 2 2 2 1 1 1 1 1 2 2 2 2 2 2 2 2 3 3 3 3 4 4 4 4 4 4 5
5 5 5 5 5 5 4 4 4 3 3 3 2 2 2 2 2 1 1 1 1 1 1 1 1 1 1 1 2 2 2 2 2 3 3 3 3 4 4 4 4 4 4
5 5 4 4 4 4 4 4 3 3 2 2 2 2 2 1 1 1 1 1 1 0 0 0 1 1 1 1 1 1 2 2 2 2 2 3 3 3 4 4 4 4 4
4 4 4 4 4 4 3 3 2 2 2 2 2 1 1 1 1 1 0 0 0 0 0 -0 0 0 0 0 0 1 1 1 2 2 2 2 2 3 3 4 4 4 4
4 4 4 3 3 3 3 2 2 2 1 1 1 1 1 0 0 0 -0 -0 -0 -0 -0 -0 -0 -0 -0 -0 -0 0 0 1 1 1 2 2 2 3 3 3 3 3 4
4 3 3 3 3 2 2 1 1 1 1 1 1 1 0 0 -0 -0 -0 -0 -1 -1 -1 -1 -1 -1 -1 -1 -1 -0 -0 -0 0 1 1 1 2 2 2 3 3 3 3
3 3 3 2 2 2 1 1 1 1 0 0 0 -0 -0 -0 -0 -1 -1 -1 -1 -1 -1 -1 -1 -1 -1 -1 -1 -1 -1 -1 -0 0 0 1 1 1 2 2 2 2 3
3 2 2 2 2 1 1 1 0 0 0 -0 -0 -1 -1 -1 -1 -1 -1 -1 -1 -1 -1 -1 -1 -1 -2 -1 -1 -1 -1 -1 -1 -0 -0 -0 0 1 1 1 1 2 2
2 2 2 2 1 1 0 0 -0 -0 -0 -0 -1 -1 -1 -1 -1 -1 -1 -1 -1 -1 -1 -2 -2 -2 -2 -2 -2 -1 -1 -1 -1 -0 -0 -1 -0 0 0 1 1 1 1
2 2 1 1 1 1 0 -0 -1 -1 -1 -1 -1 -1 -2 -2 -2 -2 -2 -2 -2 -2 -2 -2 -2 -2 -2 -2 -2 -1 -1 -1 -1 -1 -1 -1 -1 -0 0 0 0 0 1
1 1 1 0 0 -0 -0 -1 -1 -2 -2 -2 -2 -2 -2 -2 -2 -2 -2 -2 -2 -2 -2 -2 -2 -2 -2 -1 -1 -1 -1 -1 -1 -1 -1 -1 -1 -1 -1 -0 -0 0 0

GEFSMA_850_meantemp_222.txt.gz
Temperature
13 13 13 12 12 12 12 12 12 12 12 12 12 12 12 12 12 12 12 12 11 11 11 11 11 10 10 10 10 10 10 10 10 11 11 11 11 11 11 11 11 11 11
12 12 12 12 12 12 12 12 12 12 12 12 12 12 12 12 11 11 11 11 11 11 11 10 10 10 10 10 10 10 10 9 10 10 10 10 10 10 10 10 11 11 11
12 12 12 12 11 11 11 11 11 11 11 11 11 11 11 11 11 11 11 11 11 10 10 10 10 9 9 9 9 9 9 9 9 9 9 9 9 10 10 10 10 10 10
11 11 11 11 11 11 11 11 11 11 11 11 11 11 11 11 11 10 10 10 10 10 10 9 9 9 9 8 8 8 8 8 8 8 9 9 9 9 9 9 9 10 10
11 11 11 11 11 10 10 10 10 10 10 10 10 10 10 10 10 10 10 9 9 9 9 9 9 8 8 8 8 8 7 8 8 8 8 8 8 8 8 9 9 9 9
10 10 10 10 10 10 10 10 10 10 10 10 10 10 10 10 10 10 9 9 9 9 8 8 8 8 8 7 7 7 7 7 7 7 7 7 8 8 8 8 8 9 9
10 10 10 10 10 9 9 9 9 9 9 9 9 9 9 9 9 9 9 8 8 8 8 7 7 7 7 7 7 7 7 7 7 6 6 7 7 7 7 7 8 8 8
9 9 9 9 9 9 9 9 9 8 8 8 7 7 7 8 8 8 8 8 7 7 7 7 7 6 6 6 6 6 6 6 6 6 6 6 6 6 6 7 7 7 7
9 9 9 9 9 8 8 8 8 8 7 7 6 6 5 5 5 6 6 7 6 6 6 6 6 6 6 6 5 5 5 6 5 5 5 5 6 6 6 6 6 6 7
9 9 8 8 8 8 8 8 7 7 7 6 6 6 5 4 4 4 5 6 6 6 6 5 5 5 5 5 5 5 5 5 5 5 5 5 5 5 5 5 6 6 6
8 8 8 8 8 7 7 7 7 7 6 6 6 5 5 5 4 4 4 5 5 5 5 5 5 5 5 4 4 4 4 4 4 4 4 4 4 4 5 5 5 5 5
8 8 7 7 7 7 7 7 6 6 6 6 5 5 5 4 4 3 3 4 4 5 5 5 4 4 4 4 4 4 4 4 4 4 4 4 4 4 4 4 4 4 4
8 7 7 7 7 6 6 6 6 6 6 5 5 5 4 4 4 3 3 3 3 3 4 4 4 4 4 3 3 3 3 3 3 3 3 3 3 3 3 3 3 4 4
7 7 6 6 6 6 6 6 6 6 5 5 5 4 4 4 3 3 2 2 2 2 3 3 4 3 3 3 3 3 3 3 3 3 3 3 3 3 3 3 3 3 3
6 6 6 6 6 6 6 5 5 5 5 5 4 4 4 3 3 3 2 2 1 1 1 2 2 3 2 2 2 2 2 2 2 2 3 2 3 2 2 3 3 3 3
6 6 6 6 6 5 5 5 5 5 5 4 4 3 3 3 3 2 2 2 1 0 0 1 1 2 2 2 2 2 2 2 2 2 2 2 2 2 2 2 2 3 3
6 5 5 5 5 5 5 5 5 4 4 4 3 3 3 2 2 2 1 1 1 0 -0 1 1 1 1 1 1 1 1 1 1 2 2 2 2 2 2 2 2 2 2
5 5 5 5 5 5 4 4 4 4 4 3 3 3 2 2 2 1 1 1 0 0 -0 -0 1 1 1 1 1 1 1 1 1 1 1 1 1 2 2 2 2 2 2
5 5 5 4 4 4 4 4 4 3 3 3 2 2 2 1 1 1 1 0 0 -0 -0 -1 -0 0 0 0 -0 0 0 0 0 0 1 1 1 1 1 1 2 2 2
4 4 4 4 4 4 4 3 3 3 2 2 2 1 1 1 0 0 0 -0 -0 -1 -1 -1 -1 -1 -1 -1 -1 -1 -0 -0 0 0 0 1 1 1 1 1 1 1 2
4 4 4 4 3 3 3 3 2 2 2 2 1 1 1 0 0 -0 -0 -1 -1 -1 -1 -1 -1 -1 -1 -1 -2 -2 -2 -1 -1 -0 -0 0 0 1 1 1 1 1 1
3 3 3 3 3 3 2 2 2 1 1 1 1 1 0 0 -0 -0 -1 -1 -1 -1 -2 -2 -2 -2 -2 -2 -2 -2 -2 -2 -2 -1 -1 -1 -0 0 0 0 1 1 1
3 3 3 3 2 2 2 1 1 1 1 1 0 0 -0 -0 -1 -1 -1 -1 -1 -1 -2 -2 -2 -2 -2 -2 -3 -3 -2 -2 -2 -2 -2 -1 -1 -1 -0 0 0 1 1
2 2 2 2 2 2 1 1 0 0 0 0 -0 -0 -1 -1 -1 -1 -1 -1 -1 -1 -1 -2 -2 -2 -2 -2 -3 -3 -2 -2 -2 -2 -2 -2 -1 -1 -0 -0 0 0 1
2 2 2 2 1 1 1 0 0 0 -0 -0 -0 -1 -1 -1 -1 -2 -2 -1 -1 -1 -1 -2 -2 -2 -2 -2 -2 -2 -2 -2 -2 -2 -2 -2 -2 -2 -1 -0 -0 -0 -0
2 2 1 1 1 1 0 -0 -0 -1 -1 -1 -1 -1 -1 -2 -2 -2 -2 -2 -2 -2 -2 -2 -2 -2 -2 -2 -2 -2 -2 -3 -3 -3 -2 -2 -2 -2 -2 -1 -1 -1 -0

GEFSMA_850_meantemp_228.txt.gz
Temperature
13 13 13 13 12 12 12 12 12 12 12 12 12 12 12 12 12 12 11 11 11 11 11 11 11 10 10 10 10 10 10 10 10 10 10 10 10 10 10 10 10 10 10
12 12 12 12 12 12 12 12 12 12 12 11 11 11 11 11 11 11 11 11 11 11 10 10 10 10 9 9 9 10 10 10 10 10 10 10 10 10 10 10 10 10 10
12 12 12 12 12 11 11 11 11 11 11 11 11 11 11 11 11 11 11 10 10 10 10 10 10 9 9 9 9 9 9 9 9 9 9 9 9 9 9 9 9 9 9
11 11 11 11 11 11 11 11 11 11 11 11 11 11 11 11 10 10 10 10 10 9 9 9 9 9 9 9 9 8 8 8 8 8 8 8 8 9 9 9 9 9 9
11 11 11 11 11 10 10 10 10 10 10 10 10 10 10 10 10 10 9 9 9 9 9 9 9 8 8 8 8 8 8 8 8 8 8 8 8 8 8 8 8 8 8
10 10 10 10 10 10 10 10 10 10 9 10 10 10 10 9 9 9 9 9 9 9 8 8 8 8 8 8 7 7 7 7 7 7 7 7 7 7 7 7 7 7 8
10 10 10 10 10 9 9 9 9 9 9 9 9 9 9 9 9 8 8 8 8 8 8 7 7 7 7 7 7 7 7 7 7 6 6 6 7 7 7 7 7 7 7
9 9 9 9 9 9 9 9 9 9 9 8 8 8 7 8 8 8 8 8 7 7 7 7 7 7 7 6 6 6 6 6 6 6 6 6 6 6 6 6 6 6 6
9 9 9 9 9 9 9 8 8 8 8 8 7 7 6 6 6 7 7 7 7 6 6 6 6 6 6 6 6 6 6 5 5 5 5 5 5 5 5 5 5 5 5
9 9 8 8 8 8 8 8 8 7 7 7 7 6 6 5 5 5 6 6 6 6 6 6 6 6 5 5 5 5 5 5 5 5 5 5 5 5 5 5 5 5 5
8 8 8 8 8 8 8 7 7 7 7 6 6 6 6 5 5 4 4 5 6 6 6 5 5 5 5 5 5 5 4 4 4 4 4 4 4 4 4 5 4 4 4
8 8 8 7 7 7 7 7 7 7 6 6 6 5 5 5 4 4 3 4 4 5 5 5 5 5 5 4 4 4 4 4 4 4 4 4 4 4 4 4 4 4 4
8 7 7 7 7 7 7 7 6 6 6 6 6 5 5 4 4 4 3 3 3 4 4 5 5 4 4 4 4 4 4 4 3 3 3 3 3 4 3 3 3 3 3
7 7 7 7 6 6 6 6 6 6 6 5 5 5 5 4 4 3 3 2 2 3 3 4 4 4 3 3 3 3 3 3 3 3 3 3 3 3 3 3 3 3 3
7 6 6 6 6 6 6 6 6 5 5 5 5 5 4 4 4 3 3 2 1 1 2 3 3 3 2 2 2 2 2 2 2 2 2 3 3 2 2 2 2 2 2
6 6 6 6 5 5 5 5 5 5 5 5 5 4 4 4 3 3 2 2 1 1 0 2 2 2 2 2 2 2 2 2 2 2 2 2 2 2 2 2 2 2 2
6 6 5 5 5 5 5 5 5 5 4 4 4 4 4 3 3 3 2 2 1 0 0 1 1 1 1 1 2 1 1 1 1 1 1 1 1 1 2 2 2 2 2
5 5 5 5 5 5 5 4 4 4 4 4 4 3 3 3 2 2 2 1 1 0 -0 0 1 1 1 1 1 1 1 1 1 1 1 1 1 1 1 1 1 1 1
5 5 5 5 5 4 4 4 4 4 3 3 3 3 2 2 2 2 1 1 0 0 -0 -0 -0 0 0 0 0 0 0 0 0 0 0 0 0 0 1 1 1 1 1
4 4 4 4 4 4 4 4 3 3 3 3 2 2 2 2 1 1 0 0 -0 -0 -0 -1 -0 -0 -0 -0 -1 -0 -0 -0 -0 0 0 -0 -0 0 0 0 1 1 1
4 4 4 4 3 3 3 3 3 3 2 2 2 2 1 1 1 0 0 -0 -0 -1 -1 -1 -1 -1 -1 -1 -1 -2 -2 -1 -1 -1 -0 -0 -0 0 0 0 0 0 1
3 3 3 3 3 3 3 3 2 2 2 2 2 1 1 1 0 0 -0 -0 -1 -1 -1 -2 -2 -2 -2 -2 -2 -2 -2 -2 -2 -1 -2 -1 -1 -1 -1 -0 -0 -0 0
3 3 3 3 3 2 2 2 2 2 1 1 1 1 0 0 0 0 -0 -0 -1 -1 -2 -2 -2 -2 -2 -2 -2 -2 -2 -3 -3 -2 -2 -2 -1 -1 -1 -1 -0 -0 -0
3 3 2 2 2 2 2 2 1 1 1 1 0 0 0 0 -0 -0 -1 -1 -1 -1 -2 -2 -2 -2 -2 -2 -2 -3 -3 -2 -2 -2 -2 -2 -1 -1 -1 -1 -1 -1 -1
2 2 2 2 2 1 1 1 1 1 0 0 0 -0 -0 -0 -1 -1 -1 -1 -1 -2 -2 -2 -2 -2 -2 -2 -2 -2 -2 -2 -3 -2 -2 -3 -2 -2 -1 -1 -1 -1 -1
2 2 1 1 1 1 0 0 0 -0 -0 -0 -0 -0 -1 -1 -1 -2 -2 -2 -2 -2 -2 -2 -2 -2 -2 -2 -2 -2 -3 -3 -3 -3 -2 -3 -3 -3 -2 -1 -1 -1 -1

GEFSMA_850_meantemp_234.txt.gz
Temperature
13 13 13 13 13 13 12 12 12 12 12 12 12 12 11 11 11 11 11 11 11 11 11 11 10 10 10 10 10 10 10 10 10 10 10 10 10 10 10 10 10 11 11
12 12 12 12 12 12 12 12 12 12 11 11 11 11 11 11 11 11 11 11 11 11 10 10 10 10 10 10 10 10 10 9 9 9 9 9 9 10 10 10 10 10 10
12 12 12 12 12 12 12 12 11 11 11 11 11 11 11 10 10 10 10 10 10 10 10 10 10 10 9 9 9 9 9 9 9 9 9 9 9 9 9 9 9 9 9
12 12 11 12 12 11 11 11 11 11 11 11 10 10 10 10 10 10 10 10 9 9 9 9 9 9 9 9 9 8 8 8 8 8 8 8 8 8 8 8 9 9 9
11 11 11 11 11 11 11 11 11 10 10 10 10 10 10 10 10 9 9 9 9 9 8 8 9 9 8 8 8 8 8 8 7 7 7 7 7 8 8 8 8 8 8
11 11 11 11 11 11 10 10 10 10 10 10 10 9 9 9 9 9 8 8 8 8 8 8 8 8 8 8 7 7 7 7 7 7 7 7 7 7 7 7 7 8 8
10 10 10 10 10 10 10 10 9 9 9 9 9 8 8 8 8 8 8 8 8 7 7 7 7 7 7 7 7 7 6 6 6 6 6 6 7 7 7 7 7 7 7
10 10 10 10 10 10 9 9 9 9 9 8 8 7 7 7 7 7 7 7 7 7 7 7 7 6 6 6 6 6 6 6 6 6 6 6 6 6 6 6 6 6 6
9 9 9 9 9 9 9 9 8 8 8 8 7 7 6 7 6 7 7 7 6 6 6 6 6 6 6 5 5 5 5 5 5 5 5 5 5 5 6 6 6 6 6
9 9 9 9 9 9 8 8 8 7 7 7 7 7 6 6 5 5 6 6 6 6 6 6 6 5 5 5 5 5 5 5 5 5 5 5 5 5 5 5 5 5 5
9 9 8 8 8 8 8 8 7 7 7 7 7 6 6 6 5 5 5 5 5 5 5 5 5 5 5 4 4 4 5 5 4 4 5 5 4 4 5 5 5 5 4
9 8 8 8 8 8 7 7 7 7 7 6 6 6 6 5 5 4 4 4 4 5 5 5 4 4 4 4 4 4 4 4 4 4 4 4 4 4 4 4 4 4 4
8 8 8 8 7 7 7 7 7 6 6 6 6 6 6 5 5 4 4 3 3 4 4 4 4 4 4 3 3 3 4 4 4 4 4 4 4 4 4 3 3 3 3
8 8 7 7 7 7 7 6 6 6 6 6 6 6 5 5 5 4 4 3 2 3 3 4 4 3 3 3 3 3 3 3 3 3 3 3 3 3 3 3 3 3 3
8 7 7 7 7 6 6 6 6 6 6 5 5 5 5 5 4 4 3 3 2 2 2 3 3 3 3 3 3 2 2 2 3 3 3 3 3 2 2 2 2 2 2
7 7 7 6 6 6 6 6 6 5 5 5 5 5 4 4 4 3 3 3 2 1 1 2 2 2 2 2 2 2 2 2 2 2 2 2 2 2 2 2 2 2 2
7 6 6 6 6 6 5 5 5 5 5 5 4 4 4 3 3 3 3 2 2 1 1 1 2 2 2 2 2 2 2 1 1 1 1 1 1 1 1 1 1 1 1
6 6 6 6 5 5 5 5 5 4 4 4 4 4 3 3 3 3 2 2 2 1 1 1 1 1 1 1 1 1 1 1 1 1 1 1 1 1 1 1 1 1 1
6 6 5 5 5 5 4 4 4 4 4 3 3 3 3 3 2 2 2 2 1 1 1 0 0 1 1 1 1 1 1 1 1 1 1 1 0 0 0 0 0 0 0
5 5 5 5 5 4 4 4 4 3 3 3 3 3 2 2 2 2 1 1 1 1 0 -0 -0 0 0 0 -0 -0 0 0 0 0 0 0 0 0 0 0 -0 -0 0
5 5 4 4 4 4 3 3 3 3 3 2 2 2 2 2 1 1 1 1 1 0 -0 -1 -1 -0 -0 -1 -1 -1 -1 -1 -1 -1 -1 -0 -0 -0 -0 -0 -1 -0 -0
4 4 4 4 3 3 3 3 3 2 2 2 2 2 2 1 1 1 1 1 0 -0 -1 -1 -1 -1 -1 -1 -1 -2 -2 -2 -2 -1 -1 -1 -1 -1 -1 -1 -1 -1 -1
4 4 3 3 3 3 3 2 2 2 2 2 2 1 1 1 1 1 0 0 0 -0 -1 -1 -1 -1 -2 -2 -2 -2 -2 -2 -2 -2 -2 -2 -1 -1 -1 -1 -1 -1 -1
3 3 3 3 3 2 2 2 2 2 2 1 1 1 1 0 0 0 -0 -0 -0 -0 -1 -1 -1 -1 -2 -2 -2 -2 -2 -2 -2 -2 -3 -2 -2 -2 -1 -1 -1 -1 -1
3 3 2 2 2 2 2 2 1 1 1 1 0 0 0 0 -0 -0 -1 -1 -1 -1 -1 -1 -1 -1 -1 -2 -2 -2 -2 -3 -3 -2 -3 -3 -2 -2 -1 -1 -1 -1 -1
2 2 2 2 2 2 1 1 1 1 0 0 0 0 -0 -0 -0 -1 -1 -1 -1 -1 -1 -1 -1 -1 -1 -2 -2 -2 -3 -3 -3 -3 -3 -3 -3 -3 -3 -2 -2 -2 -2

GEFSMA_850_meantemp_240.txt.gz
Temperature
13 13 13 13 13 13 13 13 12 12 12 12 12 11 11 11 11 11 11 11 11 11 10 10 10 10 10 10 10 10 10 10 10 9 9 9 9 9 9 9 9 10 10
13 13 13 13 13 13 12 12 12 12 11 11 11 11 11 11 10 10 10 10 10 10 10 10 10 10 10 9 9 9 9 9 9 9 9 9 9 9 9 9 9 9 9
13 13 13 12 12 12 12 12 11 11 11 11 11 11 11 10 10 10 10 10 10 10 10 9 9 9 9 9 8 8 8 8 8 8 8 8 8 8 8 8 9 9 9
12 12 12 12 12 12 12 11 11 11 11 11 11 11 10 10 10 9 9 9 9 9 9 9 9 8 8 8 8 7 7 7 8 8 8 8 8 8 8 8 8 8 8
12 12 12 12 12 11 11 11 11 10 10 10 10 10 10 10 9 9 9 9 9 8 8 8 8 8 8 7 7 7 7 7 7 7 7 7 7 7 8 8 8 8 8
12 12 12 11 11 11 11 11 10 10 10 10 10 10 10 9 9 9 9 8 8 8 8 8 8 8 7 7 7 7 7 7 6 7 7 7 7 7 7 7 7 7 7
11 11 11 11 11 11 10 10 10 10 9 9 9 9 9 9 8 8 8 8 8 8 7 7 7 7 7 6 6 6 6 6 6 6 6 6 6 7 7 7 7 7 7
11 11 11 11 10 10 10 10 10 9 9 9 8 8 7 8 8 8 8 8 7 7 7 7 6 6 6 6 6 6 6 6 6 6 6 6 6 6 6 6 6 6 6
11 10 10 10 10 10 10 10 9 9 9 8 8 7 7 7 7 7 7 7 7 7 6 6 6 6 6 5 5 5 5 5 5 5 5 5 5 5 5 5 5 6 6
10 10 10 10 10 9 9 9 9 8 8 8 7 7 7 7 6 6 6 6 6 6 6 6 6 6 5 5 5 5 5 5 4 5 5 5 5 5 5 5 5 5 5
10 10 10 9 9 9 9 8 8 8 8 8 7 7 7 6 6 5 5 6 6 6 6 6 5 5 5 5 5 4 4 4 4 4 4 4 4 4 4 4 4 4 4
9 9 9 9 9 8 8 8 8 8 7 7 7 7 6 6 6 5 5 5 5 5 5 5 5 5 4 4 4 4 4 4 4 4 4 3 3 3 3 4 3 3 4
9 9 9 9 8 8 8 8 7 7 7 7 6 6 6 6 5 5 4 4 4 4 5 5 5 4 4 4 4 4 3 3 3 3 3 3 3 3 3 3 3 3 3
9 9 9 8 8 8 7 7 7 7 6 6 6 6 5 5 5 4 4 3 3 3 4 4 4 4 4 3 3 3 3 3 3 3 3 3 2 2 2 2 2 2 2
8 8 8 8 8 7 7 7 6 6 6 6 5 5 5 5 4 4 4 3 3 2 2 3 3 3 3 3 3 3 3 3 3 2 2 2 2 2 2 1 1 1 2
8 8 8 7 7 7 7 6 6 6 5 5 5 5 5 4 4 4 3 3 2 2 2 3 2 2 3 3 2 2 2 2 2 2 2 1 1 1 1 1 1 1 1
8 7 7 7 7 6 6 6 6 5 5 5 5 4 4 4 3 3 3 3 2 2 2 2 2 2 2 2 2 2 2 2 2 1 1 1 1 1 1 1 1 1 1
7 7 7 7 6 6 6 5 5 5 5 4 4 4 4 3 3 3 3 2 2 2 2 2 2 2 2 2 1 1 1 1 1 1 1 1 1 1 0 0 0 0 0
7 7 6 6 6 6 5 5 5 5 4 4 4 4 3 3 3 2 2 2 2 2 2 1 1 1 1 1 1 1 1 1 1 0 0 0 0 0 0 0 -0 -0 -0
6 6 6 6 5 5 5 5 4 4 4 4 3 3 3 2 2 2 2 2 2 1 1 1 1 1 1 1 1 0 1 1 0 0 0 -0 -0 -0 -0 -0 -0 -0 -1
6 5 5 5 5 5 5 4 4 4 4 3 3 3 2 2 2 2 1 1 1 1 1 1 0 1 0 0 -0 -0 -1 -0 -0 -0 -0 -0 -0 -0 -0 -0 -0 -1 -1
5 5 5 5 4 4 4 4 4 3 3 3 3 2 2 2 2 1 1 1 1 1 0 -0 -0 -0 -0 -0 -1 -1 -1 -2 -2 -1 -1 -1 -1 -1 -1 -1 -1 -1 -1
4 4 4 4 4 4 4 3 3 3 3 3 2 2 2 1 1 1 1 1 1 0 -0 -0 -1 -1 -1 -1 -1 -1 -2 -2 -2 -2 -2 -1 -1 -1 -1 -1 -1 -1 -1
4 4 4 4 3 3 3 3 3 2 2 2 2 1 1 1 1 0 0 0 0 0 -0 -0 -1 -1 -1 -1 -2 -2 -2 -2 -2 -2 -2 -2 -2 -1 -1 -1 -1 -1 -1
3 3 3 3 3 3 2 2 2 2 2 2 1 1 1 0 0 -0 -0 -0 -0 -0 -0 -1 -1 -1 -1 -1 -2 -2 -2 -2 -3 -2 -3 -3 -2 -2 -1 -1 -1 -1 -2
3 3 2 2 2 2 2 1 1 1 1 1 1 1 0 -0 -0 -0 -1 -1 -1 -1 -1 -1 -1 -1 -1 -1 -2 -2 -3 -3 -4 -3 -3 -3 -3 -3 -3 -1 -1 -2 -2

GEFSMA_850_meantemp_246.txt.gz
Temperature
14 14 14 14 14 13 13 13 13 13 13 12 12 12 12 11 11 11 11 10 10 10 10 9 9 9 9 9 9 9 8 8 8 8 9 9 9 9 9 9 9 9 9
14 14 14 13 13 13 13 13 12 12 12 12 12 11 11 11 11 11 10 10 10 9 9 9 9 8 8 8 8 8 8 8 8 8 8 8 8 8 8 8 8 8 8
13 13 13 13 13 13 12 12 12 12 12 12 11 11 11 11 10 10 10 9 9 9 9 9 8 8 8 8 7 7 7 7 7 8 8 7 8 8 8 8 8 8 8
13 13 13 13 12 12 12 12 12 12 11 11 11 11 11 10 10 10 9 9 9 9 9 8 8 8 7 7 7 7 7 7 7 7 7 7 7 7 7 7 7 8 8
13 12 12 12 12 12 12 12 11 11 11 11 11 10 10 10 9 9 9 9 8 8 8 8 8 8 7 7 7 6 6 6 6 6 6 6 7 7 7 7 7 7 7
12 12 12 12 12 12 11 11 11 11 11 10 10 10 9 9 9 9 8 8 8 8 8 7 7 7 7 7 6 6 6 6 6 6 6 6 6 6 6 6 6 7 7
12 12 12 11 11 11 11 11 11 10 10 10 10 9 9 9 8 8 8 8 8 7 7 7 7 7 7 6 6 6 6 6 5 5 5 5 5 5 6 6 6 6 6
11 11 11 11 11 11 11 10 10 10 10 9 9 8 8 8 8 8 8 7 7 7 7 7 7 6 6 6 6 6 6 5 5 5 5 5 5 5 5 5 5 5 5
11 11 11 11 10 10 10 10 10 9 9 9 8 8 8 7 7 7 7 7 7 7 7 6 6 6 6 6 5 5 5 5 4 4 4 5 4 4 4 5 5 5 5
10 10 10 10 10 10 10 9 9 9 9 9 8 8 7 7 6 6 7 7 7 7 6 6 6 5 5 5 5 5 5 4 4 4 4 4 4 4 4 4 4 4 4
10 10 10 10 10 9 9 9 9 9 8 8 8 8 7 7 6 6 6 6 7 7 6 6 5 5 5 5 5 5 4 4 4 4 4 4 4 3 3 3 3 3 3
10 10 9 9 9 9 9 8 8 8 8 8 7 7 7 7 6 6 5 5 6 6 6 5 5 5 5 5 4 4 4 4 4 4 3 3 3 3 3 3 3 3 3
9 9 9 9 9 8 8 8 8 8 8 7 7 7 6 6 6 5 5 5 5 5 5 5 5 4 4 4 4 4 4 4 4 3 3 3 3 3 3 2 2 2 2
9 9 9 9 8 8 8 8 8 7 7 7 7 6 6 6 5 5 5 4 4 4 4 4 4 4 4 4 4 4 3 3 3 3 3 2 2 2 2 2 2 2 2
8 8 8 8 8 8 7 7 7 7 7 7 6 6 6 5 5 5 4 4 3 3 3 4 3 4 3 3 3 3 3 3 2 2 2 2 2 2 2 1 1 1 1
8 8 8 8 7 7 7 7 7 7 6 6 6 5 5 5 5 4 4 4 3 2 2 3 3 3 3 3 3 3 3 2 2 2 2 2 2 2 1 1 1 1 1
7 7 7 7 7 7 7 6 6 6 6 6 5 5 5 5 4 4 4 3 3 2 2 3 3 3 3 2 2 2 2 2 2 2 2 1 1 1 1 1 1 1 0
7 7 7 7 6 6 6 6 6 6 6 5 5 5 4 4 4 4 3 3 3 2 2 2 2 2 2 2 2 2 2 1 1 2 1 1 1 1 1 0 0 0 0
6 6 6 6 6 6 6 6 5 5 5 5 4 4 4 4 3 3 3 3 2 2 2 2 2 2 2 1 1 1 1 1 1 1 1 1 1 1 0 0 -0 -0 -0
6 6 6 6 5 5 5 5 5 5 4 4 4 4 3 3 3 3 2 2 2 2 2 2 1 1 1 1 1 1 1 1 1 1 1 1 0 0 0 -0 -0 -1 -1
5 5 5 5 5 5 5 5 4 4 4 4 3 3 3 3 2 2 2 2 1 1 1 1 1 1 0 0 -0 -1 -1 -0 0 0 0 0 0 0 0 -0 -1 -1 -1
5 5 5 5 4 4 4 4 4 4 3 3 3 3 2 2 2 2 2 1 1 1 1 0 0 -0 -0 -1 -1 -1 -1 -1 -1 -1 -1 -0 -0 -0 -0 -1 -1 -1 -1
4 4 4 4 4 4 4 3 3 3 3 3 3 2 2 2 2 1 1 1 1 1 0 -0 -0 -1 -1 -1 -1 -2 -2 -2 -2 -2 -2 -1 -0 -0 -1 -1 -1 -1 -1
4 4 4 3 3 3 3 3 3 2 2 2 2 2 2 1 1 1 1 1 1 1 0 -0 -1 -1 -1 -2 -2 -2 -2 -2 -2 -2 -2 -2 -1 -1 -1 -1 -1 -1 -1
3 3 3 3 2 2 2 2 2 2 2 2 1 1 1 1 1 0 0 0 0 0 -0 -1 -1 -1 -1 -2 -2 -2 -2 -3 -2 -2 -2 -3 -2 -2 -1 -1 -1 -1 -1
2 2 2 2 2 2 2 1 1 1 1 1 1 1 1 0 0 0 -0 -0 -0 -1 -1 -1 -1 -1 -1 -2 -2 -2 -3 -3 -3 -3 -3 -3 -3 -3 -3 -1 -1 -1 -1

GEFSMA_850_meantemp_252.txt.gz
Temperature
14 14 14 14 13 13 13 13 13 13 12 12 12 12 12 11 11 10 10 10 10 10 9 9 9 9 9 9 9 9 9 9 8 8 8 8 8 8 8 8 8 8 8
13 13 13 13 13 13 13 13 12 12 12 12 12 11 11 11 10 10 10 10 9 9 9 9 9 9 8 8 8 8 8 8 8 8 8 8 8 8 8 8 8 8 8
13 13 13 13 13 13 12 12 12 12 12 12 11 11 11 10 10 10 9 9 9 9 9 9 9 8 8 8 8 8 8 7 7 7 7 7 7 7 7 7 7 7 7
12 12 12 12 12 12 12 12 12 11 11 11 11 11 10 10 9 9 9 9 9 9 9 9 8 8 8 8 8 7 7 7 7 7 7 7 7 7 6 6 7 7 7
12 12 12 12 12 12 12 11 11 11 11 11 11 10 10 9 9 9 9 8 8 8 8 8 8 8 8 8 7 7 7 7 7 6 6 6 6 6 6 6 6 6 6
11 12 12 11 11 11 11 11 11 11 10 10 10 10 9 9 9 8 8 8 8 8 8 8 8 8 7 7 7 7 7 6 6 6 6 6 6 6 5 5 5 5 5
11 11 11 11 11 11 11 11 10 10 10 10 10 9 9 9 8 8 8 8 8 8 7 7 7 7 7 7 7 7 7 6 6 5 5 5 5 5 5 5 5 5 5
11 11 11 11 11 11 10 10 10 10 9 9 9 9 8 8 8 8 8 8 7 7 7 7 7 7 7 7 6 6 6 6 6 5 5 5 4 4 5 4 5 5 5
10 10 10 10 10 10 10 10 9 9 9 9 9 8 8 8 8 8 8 7 7 7 7 7 7 6 6 6 6 6 6 6 5 5 4 4 4 4 4 4 4 4 4
10 10 10 10 10 10 10 9 9 9 9 9 8 8 8 7 7 7 7 7 7 7 7 6 6 6 6 6 5 5 5 5 5 4 4 4 4 4 4 4 4 4 4
9 9 9 9 9 9 9 9 9 9 8 8 8 8 8 7 7 6 6 7 7 7 6 6 6 6 5 5 5 5 5 5 4 4 4 4 3 3 3 3 3 3 3
9 9 9 9 9 9 9 8 8 8 8 8 8 7 7 7 7 6 6 6 6 7 6 6 5 5 5 5 5 5 4 4 4 4 3 3 3 3 3 3 3 3 3
9 9 9 9 8 8 8 8 8 8 8 8 7 7 7 7 6 6 6 5 5 6 6 5 5 5 4 4 4 4 4 4 4 3 3 3 3 3 3 3 3 2 3
9 8 8 8 8 8 8 7 7 7 7 7 7 7 6 6 6 6 5 5 4 4 5 5 4 4 4 4 4 4 4 4 3 3 3 3 3 2 2 2 2 2 2
8 8 8 8 7 7 7 7 7 7 7 7 6 6 6 6 5 5 5 4 4 3 3 4 4 4 4 3 3 3 3 3 3 3 3 2 2 2 2 2 2 2 2
7 7 7 7 7 7 7 6 6 6 6 6 6 6 5 5 5 5 4 4 3 3 2 3 3 3 3 3 3 3 3 3 3 2 2 2 2 2 2 1 1 1 1
7 7 7 6 6 6 6 6 6 6 6 6 5 5 5 5 4 4 4 4 3 2 2 3 3 3 3 3 3 3 2 2 2 2 2 2 2 1 1 1 1 1 1
6 6 6 6 6 6 6 5 5 5 5 5 5 5 4 4 4 4 3 3 3 2 2 2 3 3 3 2 2 2 2 2 2 2 2 1 1 1 1 1 1 0 0
6 6 6 5 5 5 5 5 5 5 5 5 4 4 4 4 4 3 3 3 2 2 2 2 2 2 2 2 2 2 2 2 1 1 1 1 1 1 1 1 0 0 0
5 5 5 5 5 5 5 4 4 4 4 4 4 4 4 3 3 3 3 2 2 2 1 1 1 1 1 1 1 1 1 1 1 1 1 1 1 0 0 0 0 0 0
4 5 4 4 4 4 4 4 4 4 4 4 3 3 3 3 2 2 2 2 2 1 1 1 0 0 0 -0 -0 -0 -0 0 1 1 1 1 0 0 0 0 0 -0 -0
4 4 4 4 4 4 4 3 3 3 3 3 3 3 3 2 2 2 1 1 1 1 0 0 -0 -1 -1 -1 -1 -1 -1 -1 -1 -0 -0 0 0 0 0 -0 -0 -0 -0
3 3 3 3 3 3 3 3 3 3 3 3 3 2 2 2 2 1 1 1 1 1 0 -0 -0 -1 -1 -1 -1 -1 -1 -1 -1 -1 -1 -0 -0 -0 0 -0 -1 -1 -1
3 3 3 3 3 3 3 2 2 2 2 2 2 2 2 2 1 1 1 1 1 1 0 -0 -0 -0 -1 -1 -1 -2 -2 -2 -1 -1 -2 -2 -1 -1 0 -0 -1 -1 -1
2 2 2 2 2 2 2 2 2 2 2 1 1 1 1 1 1 1 0 0 1 0 0 0 -0 -0 -1 -1 -2 -2 -2 -2 -2 -2 -2 -2 -2 -2 -1 -0 -1 -1 -1
2 2 2 2 2 2 1 1 1 1 1 1 1 1 1 1 0 0 0 -0 0 0 0 0 -0 -0 -1 -1 -2 -2 -2 -3 -3 -3 -3 -3 -3 -3 -3 -1 -1 -1 -1